Date String (YYYY-MM-DD hh:mm:ss) UTC,Instrument flags,absolute air pressure of the measurement (hPa),sample flow rate (lpm),inlet stack bypass flow (lpm),air temperature of the measurement (°C),ambient temperature measured by the external sensor (°C),aerosol sample conditioner tube jacket temperature (°C),OPC LED temperature (°C),internal box temperature (°C),relative humidity of the measurement (%),span deviation,mass concentration of particles derived from Lorenz-Mie calculation of OPC scattering (μg/m³),mass concentration of particles derived from Lorenz-Mie calculation of OPC scattering (μg/m³),mass concentration of particles derived from Lorenz-Mie calculation of OPC scattering (μg/m³)
DateTimeUTC,F1_M11,P_M11,Q1_M11,Q2_M11,T1_M11,T2_M11,T3_M11,T4_M11,T5_M11,U1_M11,ZSPAN_M11,X0_M11,X2_M11,X1_M11
2023-11-11 05:00:00,SystemResetWarning,0831.2,5.00,000.00,023.8,022.6,000.0,032.3,025.2,8.6,0000.0,0008.93,0003.57,0003.12
2023-11-11 05:01:00,SystemResetWarning,0831.2,5.01,000.00,023.8,022.6,000.0,032.3,025.1,8.4,0000.0,0009.25,0003.59,0003.13
2023-11-11 05:02:00,SystemResetWarning,0831.2,5.01,000.00,023.8,022.6,000.0,032.2,025.1,8.3,0000.0,0009.00,0003.58,0003.14
2023-11-11 05:03:00,SystemResetWarning,0831.2,5.00,000.00,023.8,022.6,000.0,032.2,025.2,8.3,0000.0,0009.00,0003.60,0003.14
2023-11-11 05:04:00,SystemResetWarning,0831.2,5.00,000.00,023.8,022.6,000.0,032.2,025.2,8.5,0000.0,0008.67,0003.59,0003.15
2023-11-11 05:05:00,SystemResetWarning,0831.2,4.99,000.00,023.8,022.6,000.0,032.2,025.1,8.4,0000.0,0008.29,0003.61,0003.17
2023-11-11 05:06:00,SystemResetWarning,0831.3,5.00,000.00,023.8,022.6,000.0,032.2,025.1,8.3,0000.0,0008.33,0003.62,0003.18
2023-11-11 05:07:00,SystemResetWarning,0831.2,5.00,000.00,023.8,022.7,000.0,032.2,025.1,8.3,0000.0,0008.33,0003.63,0003.17
2023-11-11 05:08:00,SystemResetWarning,0831.2,5.01,000.00,023.8,022.7,000.0,032.2,025.1,8.0,0000.0,0008.42,0003.65,0003.17
2023-11-11 05:09:00,SystemResetWarning,0831.2,5.00,000.00,023.8,022.7,000.0,032.2,025.1,8.2,0000.0,0008.65,0003.67,0003.17
2023-11-11 05:10:00,SystemResetWarning,0831.2,4.99,000.00,023.7,022.6,000.0,032.2,025.1,8.4,0000.0,0008.62,0003.71,0003.17
2023-11-11 05:11:00,SystemResetWarning,0831.2,4.99,000.00,023.7,022.6,000.0,032.2,025.1,8.4,0000.0,0008.55,0003.71,0003.15
2023-11-11 05:12:00,SystemResetWarning,0831.2,5.01,000.00,023.7,022.6,000.0,032.2,025.1,8.5,0000.0,0008.79,0003.72,0003.15
2023-11-11 05:13:00,SystemResetWarning,0831.2,5.00,000.00,023.7,022.6,000.0,032.2,025.0,8.7,0000.0,0009.06,0003.73,0003.16
2023-11-11 05:14:00,SystemResetWarning,0831.2,4.99,000.00,023.7,022.6,000.0,032.2,025.0,8.7,0000.0,0008.78,0003.70,0003.16
2023-11-11 05:15:00,SystemResetWarning,0831.2,5.01,000.00,023.7,022.5,000.0,032.2,025.0,8.6,0000.0,0008.55,0003.67,0003.15
2023-11-11 05:16:00,SystemResetWarning,0831.2,5.01,000.00,023.7,022.5,000.0,032.2,025.0,8.7,0000.0,0008.56,0003.65,0003.14
2023-11-11 05:17:00,SystemResetWarning,0831.2,4.99,000.00,023.7,022.5,000.0,032.1,025.0,8.7,0000.0,0008.61,0003.65,0003.13
2023-11-11 05:18:00,SystemResetWarning,0831.2,5.00,000.00,023.7,022.5,000.0,032.1,025.0,8.7,0000.0,0008.62,0003.65,0003.14
2023-11-11 05:19:00,SystemResetWarning,0831.2,5.00,000.00,023.6,022.5,000.0,032.1,025.0,8.7,0000.0,0008.56,0003.62,0003.14
2023-11-11 05:20:00,SystemResetWarning,0831.2,4.99,000.00,023.6,022.4,000.0,032.1,025.0,8.7,0000.0,0008.40,0003.61,0003.13
2023-11-11 05:21:00,SystemResetWarning,0831.2,4.99,000.00,023.6,022.4,000.0,032.1,025.0,8.4,0000.0,0008.14,0003.59,0003.13
2023-11-11 05:22:00,SystemResetWarning,0831.1,5.00,000.00,023.6,022.4,000.0,032.1,025.0,7.7,0000.0,0007.94,0003.59,0003.13
2023-11-11 05:23:00,SystemResetWarning,0831.1,5.00,000.00,023.6,022.4,000.0,032.1,025.0,7.5,0000.0,0007.10,0003.55,0003.12
2023-11-11 05:24:00,SystemResetWarning,0831.1,5.01,000.00,023.6,022.4,000.0,032.1,025.0,7.0,0000.0,0005.89,0003.54,0003.11
2023-11-11 05:25:00,SystemResetWarning,0831.2,5.01,000.00,023.6,022.4,000.0,032.1,025.0,7.0,0000.0,0005.94,0003.55,0003.11
2023-11-11 05:26:00,SystemResetWarning,0831.1,5.00,000.00,023.6,022.4,000.0,032.1,025.0,8.2,0000.0,0006.01,0003.56,0003.10
2023-11-11 05:27:00,SystemResetWarning,0831.1,5.00,000.00,023.6,022.4,000.0,032.1,024.9,8.6,0000.0,0005.83,0003.54,0003.09
2023-11-11 05:28:00,SystemResetWarning,0831.1,5.00,000.00,023.6,022.4,000.0,032.1,024.9,8.6,0000.0,0006.01,0003.53,0003.09
2023-11-11 05:29:00,SystemResetWarning,0831.1,5.00,000.00,023.6,022.4,000.0,032.0,024.9,8.6,0000.0,0005.99,0003.54,0003.10
2023-11-11 05:30:00,SystemResetWarning,0831.1,5.00,000.00,023.6,022.4,000.0,032.0,025.0,8.6,0000.0,0006.10,0003.55,0003.09
2023-11-11 05:31:00,SystemResetWarning,0831.2,5.00,000.00,023.6,022.4,000.0,032.0,024.9,8.6,0000.0,0006.10,0003.54,0003.06
2023-11-11 05:32:00,SystemResetWarning,0831.1,5.00,000.00,023.6,022.4,000.0,032.0,025.0,8.6,0000.0,0006.06,0003.52,0003.05
2023-11-11 05:33:00,SystemResetWarning,0831.1,5.01,000.00,023.6,022.4,000.0,032.0,025.0,8.6,0000.0,0006.18,0003.53,0003.04
2023-11-11 05:34:00,SystemResetWarning,0831.1,4.99,000.00,023.6,022.5,000.0,032.0,025.0,8.6,0000.0,0006.29,0003.56,0003.05
2023-11-11 05:35:00,SystemResetWarning,0831.1,4.99,000.00,023.6,022.5,000.0,032.0,025.0,8.6,0000.0,0006.39,0003.57,0003.06
2023-11-11 05:36:00,SystemResetWarning,0831.1,4.99,000.00,023.6,022.5,000.0,032.0,025.0,8.5,0000.0,0006.39,0003.55,0003.04
2023-11-11 05:37:00,SystemResetWarning,0831.1,5.01,000.00,023.6,022.5,000.0,032.0,025.0,8.6,0000.0,0006.25,0003.54,0003.05
2023-11-11 05:38:00,SystemResetWarning,0831.1,5.02,000.00,023.6,022.5,000.0,032.0,025.0,8.6,0000.0,0006.31,0003.55,0003.06
2023-11-11 05:39:00,SystemResetWarning,0831.0,5.01,000.00,023.6,022.6,000.0,032.0,025.1,8.6,0000.0,0006.22,0003.54,0003.04
2023-11-11 05:40:00,SystemResetWarning,0831.1,4.99,000.00,023.6,022.6,000.0,032.0,025.0,8.6,0000.0,0007.35,0003.52,0003.00
2023-11-11 05:41:00,SystemResetWarning,0831.2,5.00,000.00,023.6,022.6,000.0,032.0,025.0,8.6,0000.0,0007.19,0003.50,0002.98
2023-11-11 05:42:00,SystemResetWarning,0831.1,5.00,000.00,023.6,022.7,000.0,032.0,025.1,8.6,0000.0,0006.99,0003.48,0003.00
2023-11-11 05:43:00,SystemResetWarning,0831.1,4.99,000.00,023.7,022.7,000.0,032.0,025.1,8.6,0000.0,0007.86,0003.49,0003.00
2023-11-11 05:44:00,SystemResetWarning,0831.1,5.00,000.00,023.7,022.7,000.0,032.0,025.1,8.6,0000.0,0008.01,0003.47,0003.00
2023-11-11 05:45:00,SystemResetWarning,0831.1,5.00,000.00,023.7,022.8,000.0,032.0,025.1,8.6,0000.0,0008.00,0003.45,0002.99
2023-11-11 05:46:00,SystemResetWarning,0831.1,5.00,000.00,023.7,022.8,000.0,032.0,025.1,8.5,0000.0,0007.99,0003.43,0002.98
2023-11-11 05:47:00,SystemResetWarning,0831.1,5.01,000.00,023.7,022.8,000.0,032.0,025.1,8.5,0000.0,0007.98,0003.44,0003.00
2023-11-11 05:48:00,SystemResetWarning,0831.1,5.00,000.00,023.7,022.8,000.0,032.0,025.2,8.5,0000.0,0008.10,0003.47,0002.99
2023-11-11 05:49:00,SystemResetWarning,0831.0,5.00,000.00,023.7,022.8,000.0,032.0,025.2,8.6,0000.0,0008.22,0003.49,0002.98
2023-11-11 05:50:00,SystemResetWarning,0831.0,5.00,000.00,023.7,022.8,000.0,032.0,025.2,8.5,0000.0,0008.18,0003.50,0002.99
2023-11-11 05:51:00,SystemResetWarning,0831.0,4.99,000.00,023.7,022.8,000.0,032.0,025.2,8.5,0000.0,0007.51,0003.51,0003.01
2023-11-11 05:52:00,SystemResetWarning,0831.0,4.99,000.00,023.7,022.8,000.0,032.1,025.2,8.5,0000.0,0007.58,0003.54,0003.02
2023-11-11 05:53:00,SystemResetWarning,0831.0,5.00,000.00,023.7,022.8,000.0,032.1,025.2,8.5,0000.0,0007.70,0003.58,0003.03
2023-11-11 05:54:00,SystemResetWarning,0831.0,5.00,000.00,023.7,022.8,000.0,032.1,025.2,8.6,0000.0,0006.70,0003.57,0003.02
2023-11-11 05:55:00,SystemResetWarning,0831.0,5.01,000.00,023.7,022.8,000.0,032.1,025.1,8.6,0000.0,0006.30,0003.56,0003.00
2023-11-11 05:56:00,SystemResetWarning,0831.0,5.01,000.00,023.7,022.8,000.0,032.1,025.1,8.5,0000.0,0006.61,0003.58,0003.00
2023-11-11 05:57:00,SystemResetWarning,0831.0,5.00,000.00,023.7,022.7,000.0,032.1,025.1,8.5,0000.0,0007.96,0003.61,0003.01
2023-11-11 05:58:00,SystemResetWarning,0831.0,4.99,000.00,023.7,022.7,000.0,032.1,025.2,8.5,0000.0,0007.92,0003.59,0002.99
2023-11-11 05:59:00,SystemResetWarning,0831.0,4.99,000.00,023.7,022.7,000.0,032.1,025.2,8.6,0000.0,0007.89,0003.56,0003.00
